カタログに戻る

COSMOS 970 DEB

運用中LEO
NORAD 64979·DEBRIS·🇷🇺 Russia

打ち上げ Dec 21, 1977 から Baikonur Cosmodrome

Loading…

次のパス (今後24時間)

TLE

古いSource: Space-Track

元期: Aug 17, 2026, 22:22 UTC

1 64979U 77121CQ  26229.93244345  .00000056  00000-0  14743-3 0  9991
2 64979  65.8344 297.8376 0126144 153.5087 207.2495 13.69464807334609

AllMySatでCOSMOS 970 DEBをリアルタイム追跡

Download on the App Store